Wind_Speed
78 77 77 76 75 74 73 74 74 71 67 64 64 64 62 61 60 58 56 55 55 55 53 49 49 49 46 45 43 40 36 31 29 31 34 35 33 32 32 31 29 27 25 23 22 21 20 18 17 16 16 16 16 17 17 17 15 11 8 6 3 1 1 3 3 3 4 3 3 3 4 5 6 7 8 10 12 13 14 15 14 14 14 14 15 16
77 77 77 77 78 77 77 78 75 69 66 65 65 65 64 63 63 61 58 57 56 56 56 52 50 50 47 46 46 43 38 33 32 32 30 30 30 31 33 31 30 28 25 23 22 22 21 19 18 17 16 16 16 16 17 17 16 13 10 8 5 2 2 0 1 2 2 2 2 2 2 3 4 5 6 8 10 12 13 14 14 14 13 13 14 15
77 77 78 79 80 78 79 78 73 70 70 69 68 67 68 66 63 60 58 57 57 57 58 58 56 53 48 47 45 43 39 34 33 30 26 26 28 31 34 33 30 27 24 23 24 23 21 20 18 17 17 16 16 16 16 17 17 15 12 9 6 4 4 2 1 1 1 1 1 1 1 1 2 3 4 6 8 10 11 12 13 13 13 13 13 13
77 78 79 80 80 79 79 77 73 74 75 72 71 71 71 67 62 62 61 59 59 58 58 60 60 58 54 50 48 46 43 39 37 34 30 31 32 32 33 32 29 28 26 25 25 23 22 20 19 18 17 16 16 16 16 17 17 16 14 10 8 6 4 4 2 2 2 1 2 2 2 1 1 2 4 5 6 8 9 10 11 12 12 12 12 12
79 81 82 82 80 79 79 77 77 79 77 74 73 72 71 66 65 65 61 58 58 58 59 59 60 61 58 55 52 49 48 46 44 41 38 37 35 32 32 31 30 29 28 27 25 23 22 21 19 18 18 17 16 16 16 16 16 16 14 11 9 7 5 6 5 3 4 3 3 3 3 3 3 3 4 4 5 6 7 8 9 10 11 12 11 11
83 83 83 81 79 79 79 79 80 80 79 77 74 73 72 69 68 64 59 59 59 59 60 60 60 61 59 57 55 53 52 50 48 46 44 41 38 35 34 33 32 31 29 27 25 24 22 22 21 19 18 18 17 16 15 15 16 16 14 11 10 9 7 7 8 6 6 5 4 3 2 3 3 3 2 3 4 5 6 7 8 9 10 11 11 11
85 84 82 79 78 79 79 80 81 80 80 79 75 75 74 72 68 63 62 64 64 63 63 61 61 61 58 58 57 56 55 53 51 48 47 45 42 38 35 32 31 31 30 27 26 27 25 24 23 20 20 20 18 16 15 14 15 15 14 12 11 10 9 8 9 9 8 6 4 3 1 0 0 1 2 2 3 4 4 6 6 7 8 9 10 10
86 84 82 80 81 81 79 79 81 81 81 81 79 78 75 72 68 66 68 69 67 66 64 62 63 61 59 58 57 56 55 54 52 48 46 45 42 37 35 34 33 32 31 29 29 28 25 25 23 21 21 22 20 19 17 15 14 14 14 13 12 12 11 10 10 10 10 7 5 4 3 3 3 2 3 3 3 3 4 4 5 6 6 7 9 9
86 84 84 85 84 82 80 80 81 81 83 83 81 79 75 72 72 72 74 72 68 67 64 63 63 60 60 59 56 55 54 54 52 46 43 40 38 38 39 39 36 33 33 33 31 27 25 25 24 22 23 23 23 22 19 16 14 13 13 13 12 12 13 12 11 11 11 9 7 6 5 5 5 4 4 5 4 4 4 4 5 5 5 6 7 8
88 86 89 89 87 84 82 81 81 81 84 83 80 78 75 74 75 75 75 72 70 68 66 66 64 62 62 60 57 55 54 56 53 48 45 42 39 38 38 40 38 34 35 35 33 30 29 27 26 26 26 23 21 21 21 19 15 13 12 12 11 12 14 14 12 12 12 11 10 8 7 6 5 5 5 6 6 5 5 4 4 4 4 4 5 7
90 90 91 90 88 86 84 83 81 82 84 82 78 78 77 76 76 77 76 75 72 69 69 69 67 65 64 61 60 59 58 58 54 50 49 49 46 42 40 41 38 35 35 33 32 31 31 32 31 30 28 25 22 21 20 18 16 14 13 12 11 12 14 15 13 12 12 13 12 10 9 7 6 6 5 6 6 6 5 5 4 5 5 4 4 5
91 91 90 89 88 86 85 84 82 84 85 79 76 79 78 77 79 79 78 78 74 71 72 71 69 69 68 64 62 60 60 60 57 55 54 53 52 50 48 45 39 36 34 32 32 32 33 35 34 31 28 26 24 20 18 17 17 17 16 14 13 13 14 15 14 13 13 14 14 13 11 9 8 7 6 5 5 6 6 5 4 5 6 5 4 4
92 91 91 90 88 87 87 85 84 85 83 78 78 81 80 79 79 77 77 77 73 72 75 74 73 73 70 67 65 63 61 59 57 57 56 55 54 53 51 48 44 42 39 37 38 38 37 36 35 32 28 26 25 22 20 21 22 20 18 17 15 15 15 16 15 15 14 15 16 15 14 12 10 8 6 5 5 6 6 5 4 5 6 5 5 4
93 95 95 92 89 88 89 88 88 87 82 79 81 83 81 80 78 75 75 75 73 73 76 76 76 74 71 69 68 67 65 63 60 59 58 57 55 54 52 50 47 44 41 40 41 41 40 38 36 32 28 26 25 23 22 23 22 21 19 18 18 18 17 16 16 17 16 15 17 17 16 15 13 10 8 6 6 6 6 5 5 5 5 5 5 4
96 98 97 94 92 91 90 91 91 89 84 82 84 83 82 82 79 76 75 74 73 75 77 78 75 72 71 70 70 70 68 66 64 63 61 59 57 56 54 52 48 44 43 43 43 43 42 37 34 31 27 24 24 23 22 22 21 20 18 17 19 20 18 17 17 18 18 16 17 18 18 17 15 13 10 8 8 7 6 5 5 4 4 5 5 4
97 100 99 97 96 93 91 92 92 90 87 86 86 84 83 82 80 78 76 75 75 77 80 78 74 71 71 71 70 71 70 68 66 65 63 61 59 57 56 55 52 47 45 47 46 44 41 35 31 29 26 24 24 23 22 22 21 20 19 19 20 21 20 20 19 19 20 18 18 19 20 19 18 16 13 11 10 9 7 5 4 3 3 4 5 4
98 101 101 98 96 94 93 93 91 90 90 90 88 85 83 82 82 80 79 77 77 80 81 77 72 70 71 71 71 72 70 68 67 66 64 62 60 59 58 57 55 52 49 48 46 43 40 35 27 23 23 23 23 23 22 22 22 21 21 21 21 21 23 22 21 21 22 20 19 20 21 21 20 18 16 14 13 11 9 7 5 3 2 2 3 3
102 103 101 99 98 96 95 93 91 92 93 93 91 88 87 87 86 83 81 78 78 79 80 76 72 72 72 72 72 72 70 68 67 66 65 64 62 61 59 58 57 55 53 50 48 44 41 35 27 23 27 28 25 24 23 22 20 20 21 22 21 24 25 24 23 23 23 22 22 21 22 22 22 21 20 18 16 14 11 9 7 5 4 2 1 2
104 103 100 100 99 96 96 95 93 94 94 93 93 92 91 90 87 84 80 78 77 77 77 73 71 73 74 74 74 72 69 66 66 66 65 64 63 62 60 59 58 57 56 53 49 46 42 40 37 36 37 34 28 24 22 21 21 21 21 19 19 21 23 24 25 26 25 25 25 24 24 24 25 24 23 21 19 17 14 12 10 8 7 4 2 1
101 98 97 100 99 97 97 96 94 95 94 94 95 94 93 91 88 85 83 80 76 76 76 73 72 76 76 75 75 72 68 66 66 66 65 64 64 62 61 60 58 58 57 54 50 47 45 43 43 42 40 37 33 28 25 23 22 21 18 17 18 20 23 26 28 28 28 28 27 26 26 26 27 27 26 25 23 20 18 16 14 12 10 8 6 4
98 97 97 99 98 97 98 98 98 98 97 95 94 94 94 93 90 87 87 86 82 80 78 75 77 79 77 75 74 70 68 68 68 67 66 66 64 63 62 60 59 59 57 55 52 49 47 45 44 42 40 37 34 31 27 23 21 19 17 18 22 25 28 32 32 30 30 30 29 28 27 26 27 28 29 28 26 24 22 20 17 16 14 11 9 8
99 99 99 100 99 100 101 100 98 98 97 94 92 93 94 94 93 91 90 88 85 83 82 82 82 81 79 76 74 70 70 71 70 68 67 66 65 64 63 62 61 60 59 56 53 50 49 48 46 44 41 37 33 30 27 25 22 18 17 21 26 29 32 34 33 31 31 31 31 29 27 27 27 28 29 29 29 28 26 23 21 19 17 15 12 11
99 99 100 101 103 104 102 99 97 97 97 95 93 94 94 93 94 94 93 92 89 86 85 85 84 83 81 78 75 73 73 72 70 69 68 67 66 66 65 63 62 62 60 57 54 52 50 49 47 45 43 40 35 31 27 27 27 23 21 25 28 31 35 36 34 33 33 33 32 31 29 27 27 27 28 29 29 29 28 26 24 22 20 17 16 14
97 99 101 102 104 103 99 98 100 100 99 98 98 99 97 95 95 95 95 95 93 90 88 86 84 82 80 79 76 76 76 74 72 71 69 68 67 67 66 65 63 63 61 59 56 53 51 50 48 46 44 42 38 34 30 29 31 30 28 28 26 27 31 36 37 35 34 34 34 33 31 29 28 28 28 29 29 30 30 29 27 25 23 21 19 18
96 99 102 102 102 100 98 99 101 100 100 102 102 100 97 94 94 95 94 94 93 91 90 90 88 85 82 80 78 78 78 77 75 72 70 69 69 68 67 66 65 63 62 59 57 55 53 51 49 47 45 43 40 38 35 33 32 29 28 28 28 27 29 36 39 37 35 35 35 34 33 30 29 28 28 29 30 30 30 30 30 29 27 25 24 22
96 99 101 101 100 99 99 100 100 101 102 103 101 98 95 94 94 94 95 95 96 95 94 94 91 87 86 85 82 81 80 78 76 75 73 71 70 69 68 68 66 65 63 61 58 56 54 52 50 48 46 45 43 42 42 44 42 37 34 33 32 34 37 40 41 38 36 36 35 34 32 30 29 28 27 27 29 30 31 32 32 31 30 29 28 26
95 98 100 100 100 101 102 102 103 103 103 102 100 98 97 97 95 95 96 96 97 99 99 98 93 88 87 86 84 83 82 80 78 77 75 73 72 71 70 69 68 67 65 62 60 58 56 54 52 50 48 46 45 45 47 50 50 49 47 46 44 45 45 43 42 41 39 37 34 32 31 30 28 28 26 26 27 28 30 32 32 32 32 31 31 29
95 97 99 100 100 101 102 102 103 103 103 102 100 100 99 98 97 98 98 97 97 98 98 99 95 92 90 89 87 85 83 82 80 78 77 75 73 72 71 70 69 68 66 64 62 59 57 56 54 52 50 48 47 47 47 49 50 51 52 53 54 54 52 48 45 42 40 38 34 32 31 29 27 26 25 26 26 26 27 28 30 31 32 32 32 31
94 95 97 98 99 100 101 101 101 102 102 101 101 101 101 100 100 101 99 97 96 96 97 97 97 96 95 94 92 89 87 85 83 81 79 77 76 74 72 71 70 69 67 65 63 61 59 58 56 54 52 50 48 48 48 48 49 50 51 52 54 55 55 54 52 47 43 39 36 34 31 28 26 25 25 25 26 25 25 25 26 27 29 30 31 31
93 94 95 96 97 99 99 100 100 101 101 101 101 102 102 102 103 102 99 98 97 97 98 98 99 100 99 97 95 93 91 89 87 85 82 80 79 77 74 73 72 71 69 67 65 63 61 59 57 55 53 52 50 49 48 48 48 49 50 51 51 52 53 54 53 52 49 44 40 36 32 29 28 26 26 26 26 25 24 23 23 24 25 27 28 29
95 94 94 95 96 97 99 99 99 99 100 101 101 102 103 103 103 102 101 99 99 100 101 100 100 101 99 98 97 96 95 93 91 89 86 83 81 79 77 76 74 73 72 70 68 66 63 61 59 57 55 53 51 50 49 49 48 49 49 50 50 50 50 50 50 52 52 49 44 40 35 33 31 28 27 26 25 25 23 22 22 22 24 25 26 28
98 96 95 95 95 96 97 98 99 100 101 101 102 102 103 104 104 104 102 101 101 102 103 101 101 100 98 97 98 99 99 97 94 92 90 87 85 82 80 78 77 76 74 72 71 69 67 64 62 59 57 55 54 52 50 49 49 49 49 50 49 49 48 48 48 50 53 50 46 43 40 37 34 31 30 28 26 24 22 20 20 22 23 25 26 28
100 100 99 97 96 96 96 96 98 99 101 102 103 104 104 105 105 104 103 102 102 103 104 103 103 102 99 97 99 101 101 99 97 95 94 92 89 87 84 82 80 79 77 75 74 72 70 68 66 63 61 59 57 55 53 52 51 50 50 50 50 49 48 47 46 50 53 51 47 45 43 40 36 34 34 31 28 26 26 25 23 22 23 24 26 28
102 103 102 101 100 98 96 96 97 98 101 103 105 104 104 104 104 103 103 103 103 104 105 105 105 103 100 99 102 102 101 100 99 98 98 96 94 91 89 86 84 83 81 79 78 76 74 72 70 68 65 63 61 58 57 55 53 52 52 51 51 50 49 47 46 48 52 52 49 46 44 42 39 37 35 33 31 29 30 30 29 27 24 22 25 29
101 104 104 104 103 100 98 98 98 98 100 102 102 102 103 105 105 105 105 105 104 105 106 106 106 104 102 103 104 102 100 100 101 101 101 100 98 96 93 91 89 87 85 83 81 80 78 76 74 72 70 67 65 62 60 59 57 55 54 53 52 51 50 48 46 47 50 53 51 47 45 45 43 39 35 34 34 33 32 31 30 30 31 29 27 28
95 99 102 104 105 103 101 102 102 100 100 99 98 99 102 105 106 106 106 107 107 107 107 107 107 106 105 106 105 102 100 101 102 103 103 102 101 99 97 95 93 91 89 87 85 83 82 80 78 76 74 71 68 66 64 62 60 58 56 55 54 53 51 49 48 46 47 51 53 49 45 45 45 42 37 36 37 36 35 34 33 32 34 36 36 33
86 91 95 99 102 103 104 106 105 102 101 99 98 99 101 103 105 107 108 109 109 108 108 107 106 106 107 107 106 104 103 103 104 104 103 103 102 101 100 98 96 95 93 91 89 87 85 84 82 80 78 75 73 70 68 66 64 62 60 58 56 55 53 51 49 46 45 48 52 51 46 44 44 44 42 41 40 38 36 35 36 37 37 40 42 42
78 82 87 91 95 99 103 106 106 105 103 102 101 101 102 103 104 106 108 109 110 110 109 108 107 108 108 108 107 107 106 106 106 105 103 103 102 101 101 100 99 98 96 94 93 90 88 87 85 83 81 79 76 74 71 69 67 65 63 61 59 57 55 53 51 50 48 48 51 53 50 46 44 44 45 46 44 41 38 38 40 41 42 44 45 45
72 76 80 84 87 91 96 101 103 103 104 103 103 103 104 104 105 106 108 109 111 111 111 110 109 109 109 109 108 108 108 109 109 107 103 102 102 102 102 101 101 100 99 97 95 93 92 90 88 86 84 82 80 77 74 72 70 68 67 65 62 60 59 57 54 53 52 52 53 53 52 49 47 46 47 48 47 44 41 41 43 45 45 45 46 47
68 71 75 78 81 85 89 93 97 99 100 101 103 104 105 106 106 107 108 109 110 111 111 111 111 111 111 110 109 110 111 113 112 108 103 103 103 103 103 103 102 102 101 99 98 97 95 93 91 89 87 85 83 81 78 75 73 71 70 68 66 64 62 60 58 57 56 55 55 55 55 54 51 50 49 49 48 47 45 44 45 46 47 47 48 48
65 68 71 74 77 80 83 87 91 93 95 97 99 102 104 106 106 107 109 110 109 109 111 112 112 111 111 110 110 112 113 114 112 108 106 106 107 106 105 105 104 103 103 101 100 99 98 96 94 92 90 88 86 84 81 79 77 74 73 71 70 68 66 64 62 61 59 59 57 57 58 59 57 55 54 52 50 47 46 45 47 47 47 48 48 47
63 66 68 71 74 77 80 83 87 90 91 92 95 98 101 104 106 107 108 108 107 107 111 113 112 112 112 112 112 113 113 114 113 111 110 110 110 109 108 107 106 105 104 103 102 101 100 98 97 95 93 91 90 87 85 82 80 78 76 74 73 72 70 68 66 64 63 62 61 59 59 61 61 59 58 57 54 50 48 47 47 47 48 49 49 48
62 65 67 70 72 75 78 81 84 86 85 87 91 95 97 100 103 105 105 105 106 107 110 112 113 113 114 114 114 114 114 114 114 113 112 112 113 113 111 109 108 107 106 105 104 103 102 101 100 98 96 95 93 91 89 86 84 81 79 77 75 74 73 72 70 69 67 65 64 63 61 62 63 63 62 60 57 54 52 51 50 49 49 50 50 49
61 64 67 70 72 74 77 79 81 82 82 84 88 92 94 96 99 101 102 104 106 108 110 112 113 113 114 115 116 115 115 114 115 114 113 113 115 115 114 112 111 110 108 107 106 105 104 103 102 101 99 97 96 94 92 90 87 85 82 80 78 77 76 75 74 72 71 69 67 66 65 63 63 64 66 66 63 59 57 55 55 55 55 54 51 49
59 63 66 69 71 73 76 78 79 79 80 83 86 89 91 93 95 98 100 102 104 106 109 111 112 112 114 115 116 116 116 116 116 115 114 115 116 117 116 115 114 112 111 110 109 107 106 105 104 103 102 100 98 97 95 93 91 88 86 84 81 79 78 78 77 75 74 73 71 70 69 68 66 65 66 67 67 65 62 59 59 60 61 59 56 51
57 60 64 67 70 72 75 77 78 79 80 81 84 87 89 90 93 96 97 99 101 104 107 109 111 112 113 115 116 117 117 117 117 117 116 116 117 118 118 118 117 115 114 113 111 110 109 108 107 106 104 103 101 99 97 95 93 92 90 87 85 83 81 80 79 78 78 77 75 74 72 71 70 69 67 67 67 67 66 65 63 63 63 62 60 56
52 56 60 64 67 71 74 76 78 79 79 81 83 85 87 89 91 93 95 97 99 102 105 107 110 111 113 114 116 117 118 118 119 118 118 117 118 119 120 120 119 118 117 116 115 113 112 111 110 108 107 106 104 102 100 98 97 95 93 91 88 86 84 83 81 81 80 80 79 78 76 75 74 73 71 69 68 67 68 68 68 67 67 65 63 60
49 53 56 60 64 68 71 74 76 78 79 81 83 85 87 89 90 92 93 95 97 100 103 105 108 110 112 114 115 117 118 119 119 120 119 119 119 120 121 121 121 121 120 120 118 117 115 114 112 111 110 109 107 105 103 101 100 98 96 95 92 89 88 86 84 83 83 83 82 81 80 79 78 77 75 74 72 70 69 69 70 70 70 69 67 63
47 50 53 57 61 65 68 71 73 75 78 80 83 85 87 88 90 91 93 94 96 98 101 103 106 108 111 113 115 116 117 118 120 120 121 121 121 121 122 122 123 123 123 122 121 120 119 117 116 115 113 112 110 108 106 105 103 102 100 98 96 93 90 89 88 86 85 85 85 84 84 83 82 80 79 78 76 74 72 70 70 71 72 72 71 68
46 48 50 53 57 60 63 66 68 72 75 79 81 83 85 87 89 91 93 94 95 97 99 101 103 106 108 111 113 115 116 118 119 120 121 122 122 122 123 123 124 124 124 124 124 123 122 121 120 118 117 115 114 112 110 108 107 105 104 102 99 97 94 92 90 89 88 87 87 87 86 86 85 84 83 81 80 78 76 74 72 72 72 74 74 73
44 46 48 51 54 56 59 61 64 68 72 75 79 81 83 86 88 90 92 94 95 96 98 100 102 104 106 108 110 112 115 117 118 120 121 122 123 123 124 124 124 125 125 126 126 125 125 124 123 122 120 119 118 116 114 113 111 109 107 105 103 101 98 95 93 92 91 90 89 89 89 88 88 87 86 85 84 82 80 78 76 74 73 74 76 76
Wind_Direction
213 213 214 215 216 217 217 217 217 215 215 217 219 219 218 217 216 215 214 213 212 211 214 219 221 219 217 218 220 222 223 228 237 242 248 257 260 260 262 264 268 273 276 278 283 288 293 302 310 316 320 324 328 333 335 337 338 336 333 333 323 241 21 359 349 6 26 55 87 92 80 66 53 47 49 55 59 61 63 65 67 71 72 71 71 72
213 214 214 215 216 217 217 218 217 215 216 217 219 219 219 219 218 217 216 214 214 213 214 218 222 221 219 219 220 220 221 222 223 228 240 252 257 257 260 265 270 274 274 276 283 286 289 297 304 309 314 317 321 326 328 330 332 330 324 321 317 254 199 35 332 338 14 44 102 123 114 90 65 52 48 51 57 60 63 64 66 69 72 73 73 75
213 214 214 215 216 217 218 218 217 217 217 218 219 219 219 219 218 219 219 218 217 216 216 217 220 220 219 220 219 217 217 218 216 217 225 239 248 255 261 265 270 273 272 275 281 282 286 293 298 303 308 311 315 319 322 325 327 326 320 314 309 279 224 198 235 294 342 49 164 187 168 119 86 65 56 53 57 61 63 65 66 69 72 73 75 76
213 214 215 215 215 216 218 218 218 219 219 218 219 220 220 218 218 220 219 219 219 219 219 219 221 221 221 222 222 219 218 219 219 219 225 234 241 251 259 262 267 271 271 273 275 277 283 288 291 296 300 303 308 312 316 321 322 320 317 311 301 287 245 210 203 238 242 237 236 247 270 308 44 60 58 56 59 62 64 66 68 70 72 74 75 77
214 214 215 215 214 216 217 217 218 219 219 219 220 221 221 219 220 221 220 221 222 222 222 222 223 223 223 223 224 222 221 223 225 228 233 238 242 248 255 260 263 263 266 268 269 273 279 281 284 288 291 295 300 304 310 315 317 316 315 308 293 285 259 218 208 219 235 251 265 279 306 340 12 41 58 60 64 66 65 68 72 73 74 76 76 77
214 215 215 215 215 216 216 216 218 219 219 219 220 222 222 220 221 221 220 221 222 222 224 224 225 226 225 226 227 226 225 226 228 231 235 238 243 250 257 261 257 254 261 267 268 273 275 276 281 280 283 289 290 294 301 308 312 311 311 304 285 278 267 231 216 215 226 243 266 289 327 2 18 44 73 71 73 76 71 70 74 75 76 78 78 78
214 215 215 215 216 217 216 216 218 219 220 220 220 222 222 221 222 221 221 223 221 222 223 223 226 227 227 228 228 228 228 229 231 233 236 240 246 251 254 253 249 253 262 265 269 275 273 276 279 275 280 286 284 285 292 299 304 306 304 298 283 274 267 248 226 217 221 230 247 275 299 355 355 137 142 113 92 92 84 75 76 78 78 80 81 81
214 215 215 215 216 216 216 216 218 219 220 220 220 221 221 221 222 222 222 223 223 224 224 225 227 227 228 229 230 231 232 232 233 235 239 244 247 247 244 246 251 257 261 263 269 270 269 274 275 273 283 286 282 282 286 290 294 298 300 295 285 274 266 258 240 224 221 220 227 239 231 222 226 210 178 157 143 129 108 90 83 83 82 82 83 83
213 213 214 215 216 216 215 216 218 219 220 221 221 221 221 221 222 223 223 223 223 225 225 226 228 228 229 230 230 232 234 234 234 234 235 239 245 247 244 244 249 252 255 261 267 265 265 271 271 277 289 290 285 282 280 282 287 290 294 295 288 276 267 263 252 236 225 216 217 221 220 224 226 214 188 174 169 155 136 116 98 91 87 82 83 84
211 212 214 215 215 215 215 216 217 219 220 220 221 222 221 221 223 224 225 225 225 226 226 226 227 228 229 230 230 230 232 234 233 231 229 230 235 241 244 244 245 249 254 258 262 265 267 266 266 276 287 290 290 287 280 277 280 281 282 284 281 271 267 266 259 248 232 218 215 217 219 224 225 220 198 182 175 169 156 135 112 98 90 80 81 83
211 212 214 214 215 215 215 215 216 218 220 219 221 222 221 221 222 224 225 225 224 225 227 227 227 228 228 229 229 229 231 232 232 230 229 228 227 230 238 245 248 253 258 262 267 269 268 266 267 272 278 280 282 285 280 274 276 279 275 274 269 261 262 265 261 253 240 226 218 216 219 220 222 222 210 195 184 176 166 145 121 99 85 74 71 78
212 214 215 214 215 215 215 216 216 218 219 218 220 222 221 220 222 223 225 225 225 225 227 228 228 229 229 228 229 230 231 233 233 233 232 231 230 231 236 242 243 245 251 260 264 263 264 266 269 271 273 273 272 275 276 274 281 284 276 271 264 253 252 257 256 250 243 234 224 218 219 219 218 216 211 209 198 179 170 158 128 102 86 73 63 68
213 215 214 214 214 215 215 216 217 219 219 217 219 222 221 221 222 222 225 226 225 226 228 228 228 229 229 229 230 231 232 232 233 234 234 233 234 234 236 238 240 240 242 246 249 250 256 262 267 269 271 269 264 262 267 274 282 284 277 272 265 252 245 246 247 245 242 238 230 222 220 219 217 215 212 209 201 188 179 167 139 114 99 86 71 59
213 215 214 213 213 214 215 215 216 218 217 216 219 222 222 222 223 222 224 225 224 226 229 229 229 230 230 231 231 232 233 233 233 234 235 235 236 236 237 238 240 241 241 242 243 247 253 259 263 265 267 267 262 261 267 272 280 282 275 271 268 258 248 242 240 241 240 237 233 227 222 221 219 216 214 204 194 193 187 172 154 134 116 102 89 70
213 215 214 213 213 213 214 215 216 216 215 215 218 220 221 222 222 222 222 223 223 225 229 229 229 231 232 232 233 234 234 235 235 236 237 237 238 238 239 239 238 237 238 239 242 248 254 258 260 261 263 262 260 264 267 266 274 278 268 265 267 262 254 244 239 239 238 234 232 230 225 222 221 219 217 210 197 195 192 176 166 155 134 116 101 85
215 215 213 213 213 213 214 215 215 216 215 216 218 219 221 222 222 222 222 221 221 224 228 229 229 230 232 233 234 235 236 236 236 237 237 238 238 239 240 240 239 237 238 241 244 248 252 255 259 261 259 257 258 263 263 261 268 269 258 256 261 260 255 248 240 238 239 234 229 229 227 224 223 223 221 216 207 201 194 186 177 171 152 129 116 102
215 216 214 214 214 214 215 215 215 215 215 216 217 218 220 221 222 222 222 221 222 224 227 228 228 229 231 232 233 234 235 235 236 237 238 238 238 239 240 241 242 240 239 241 243 246 249 253 259 261 254 254 257 256 254 259 266 263 253 254 261 264 258 249 241 237 238 237 229 226 228 226 224 225 224 220 217 211 203 200 198 199 196 158 132 121
215 215 214 214 215 215 216 215 215 215 215 215 216 217 218 220 221 222 223 223 223 225 227 228 228 229 230 230 232 233 234 234 235 237 238 238 239 240 240 241 243 242 241 240 241 243 245 248 249 248 249 254 256 253 254 261 263 261 256 257 264 267 258 248 243 240 237 236 230 222 224 226 224 225 225 224 224 221 215 213 215 219 232 230 166 135
215 215 214 215 215 215 216 216 216 216 216 215 216 217 218 219 220 222 223 224 225 226 228 228 227 229 229 230 231 232 232 233 234 235 236 237 238 239 240 241 242 243 243 242 241 241 242 241 238 239 245 249 250 247 247 254 256 256 255 251 253 260 257 249 246 244 240 236 231 222 218 220 222 223 224 225 226 226 224 221 221 225 235 248 252 233
216 215 215 216 216 216 217 217 217 217 217 216 216 217 218 219 220 220 222 222 223 225 227 226 226 228 229 230 231 232 232 233 233 235 235 237 238 238 240 241 242 243 243 243 242 241 241 239 238 240 241 244 245 235 227 236 245 246 246 240 239 246 250 248 246 246 244 238 234 229 221 217 217 218 221 223 225 226 227 226 226 231 237 244 257 272
216 215 215 216 216 217 218 217 217 218 217 216 216 217 218 219 219 220 222 222 221 222 223 222 224 227 228 229 231 231 232 233 234 235 236 237 238 238 239 240 241 243 243 243 242 240 240 239 240 241 240 242 243 233 225 228 230 229 229 231 237 240 241 242 242 241 240 238 236 234 229 223 218 216 217 219 221 224 226 227 228 232 238 242 252 268
215 214 215 216 216 216 217 217 218 219 219 218 218 218 218 218 219 219 221 223 223 223 223 223 223 225 227 228 229 229 230 232 233 234 235 236 237 238 239 239 241 242 243 243 242 241 241 240 239 239 239 241 238 232 232 232 220 211 214 225 237 240 238 240 239 236 237 238 236 234 233 231 225 220 219 219 220 223 225 227 228 230 237 243 250 261
215 215 216 216 217 217 216 217 218 219 219 218 219 219 219 219 219 220 220 221 222 222 224 226 226 227 228 228 228 228 230 231 232 233 234 236 237 238 239 239 240 242 242 242 242 241 242 241 240 239 239 240 236 230 235 233 217 207 212 225 236 239 237 236 235 236 237 236 234 233 231 231 230 226 223 222 223 224 226 228 230 232 236 242 251 259
215 216 216 217 218 218 217 218 218 218 219 219 219 219 218 217 218 220 221 222 222 222 223 225 226 227 229 230 229 229 230 231 231 232 233 235 236 237 238 239 240 241 242 242 242 242 241 241 241 240 238 238 234 227 229 229 221 218 222 226 227 231 239 241 237 237 237 233 232 231 229 228 228 227 225 223 224 226 227 229 232 235 237 241 250 259
216 217 217 217 219 218 218 219 219 219 219 219 219 220 219 219 219 219 220 223 224 224 225 225 225 225 226 227 227 229 230 231 231 231 232 233 235 236 237 238 239 240 241 242 241 241 241 241 241 240 238 236 232 225 220 220 220 217 219 223 218 216 232 241 239 236 234 231 229 230 230 228 228 227 225 223 224 226 228 230 233 236 238 242 248 256
217 218 218 218 218 218 218 219 220 219 220 220 220 220 220 220 221 220 220 221 222 223 224 225 226 225 226 227 227 228 230 231 231 231 232 232 234 235 236 237 238 239 239 240 240 240 240 240 240 239 237 234 231 225 219 217 218 215 214 220 223 223 228 233 233 232 228 226 227 228 229 229 231 231 228 226 226 226 227 230 232 235 239 242 247 251
219 219 219 218 218 219 219 219 220 220 220 220 220 221 221 220 221 221 221 221 222 223 223 224 225 224 226 228 228 228 229 230 231 231 232 232 233 234 236 237 237 238 238 239 239 239 239 239 238 237 236 234 231 227 223 221 222 222 221 222 224 229 230 228 228 227 223 221 224 226 227 228 231 234 234 232 231 229 228 230 231 234 237 240 244 247
220 221 220 219 219 220 220 220 221 221 221 220 220 221 221 221 221 222 221 222 223 224 225 225 225 224 225 226 227 228 229 229 230 231 231 232 233 234 235 237 238 239 239 238 238 238 238 238 237 236 235 233 231 229 227 224 223 222 223 222 222 226 228 226 224 222 218 218 221 221 224 227 229 232 236 237 237 236 235 234 233 235 236 239 241 243
222 222 222 221 221 221 221 221 222 222 222 221 221 221 221 221 222 222 222 222 223 224 225 226 225 225 225 225 226 226 227 228 229 230 231 231 232 233 234 236 238 239 239 239 238 238 237 237 237 236 235 234 232 230 228 227 225 222 222 222 222 224 227 227 227 224 218 216 217 218 221 224 225 228 232 236 239 241 242 241 241 240 239 240 240 241
223 223 223 223 222 222 222 222 222 223 223 222 222 222 222 222 222 223 222 223 224 224 225 225 225 226 226 226 227 227 227 228 229 230 231 231 232 233 233 234 236 237 238 239 238 238 237 237 238 237 236 235 234 232 230 228 227 224 223 223 223 223 226 227 229 228 222 216 215 216 217 219 221 225 230 234 237 240 242 245 247 247 248 247 244 241
224 224 224 225 224 224 223 223 223 224 224 223 222 222 223 223 223 223 222 222 223 225 225 225 226 226 226 226 227 228 228 228 229 229 230 231 231 232 233 233 235 236 237 238 238 238 237 237 237 238 237 236 235 233 232 230 228 227 226 225 225 224 226 226 227 226 223 217 213 212 214 216 218 222 226 230 233 237 241 247 251 252 252 253 252 248
223 224 225 225 225 225 224 224 224 224 225 224 223 223 223 223 223 223 222 222 223 225 226 226 226 227 226 226 226 228 228 228 229 230 230 230 230 231 232 233 234 235 236 237 238 238 238 237 236 236 236 236 236 235 233 231 230 228 227 227 226 226 226 226 224 222 219 216 213 212 213 214 214 218 222 223 225 228 231 241 253 259 258 257 256 254
223 224 225 226 226 226 225 225 225 225 226 225 224 223 223 223 223 223 223 223 223 225 226 226 226 227 226 226 226 227 228 228 229 230 231 231 230 230 231 231 232 234 235 236 237 237 238 237 236 235 235 235 235 235 234 232 231 229 228 228 227 226 226 226 224 221 218 215 213 214 215 214 215 220 222 221 220 219 217 219 229 246 261 267 265 260
223 224 225 226 227 227 227 227 226 226 227 226 225 225 224 224 224 224 223 223 223 225 226 226 227 227 226 226 227 227 228 228 229 229 230 231 231 231 231 231 231 232 233 234 235 236 237 238 237 236 235 234 233 233 233 233 231 230 229 229 228 227 226 225 224 223 219 214 212 215 216 214 216 221 222 222 224 223 219 214 212 217 230 251 266 268
224 224 225 226 227 227 227 228 228 227 227 227 226 226 226 225 225 224 224 224 223 224 225 226 226 226 226 227 228 228 228 228 228 229 230 231 231 231 231 231 231 232 232 233 234 235 236 237 238 237 236 235 233 233 233 233 232 230 230 229 229 229 227 225 224 223 220 215 213 216 219 218 218 219 219 221 227 227 224 220 216 211 211 220 238 255
223 224 225 226 227 227 228 229 229 228 227 228 228 228 228 227 226 225 225 224 224 224 225 226 226 226 226 227 229 228 228 228 228 229 229 230 231 231 232 232 232 232 233 233 233 234 235 236 237 238 237 236 235 233 233 233 232 231 230 229 229 229 228 226 225 224 221 217 215 218 221 222 222 221 219 220 225 227 224 223 222 215 210 212 218 226
222 224 225 225 227 227 228 229 230 229 228 228 228 228 229 228 227 227 226 225 225 224 224 225 226 226 227 227 228 229 228 229 229 229 229 230 231 232 232 233 233 233 233 234 234 234 235 236 237 237 238 237 236 234 233 233 232 232 231 229 228 228 228 226 225 224 221 219 219 220 222 224 225 225 223 224 227 228 225 225 224 221 218 218 216 215
220 223 224 225 225 226 227 229 229 230 230 229 228 228 229 229 228 228 227 226 225 225 224 224 225 226 226 227 228 228 229 229 229 229 230 230 231 232 232 233 233 234 234 234 235 235 235 236 237 237 238 238 238 236 234 233 232 232 232 231 229 228 227 226 225 223 221 218 219 220 220 221 223 223 224 226 228 228 225 225 226 224 224 224 221 218
220 221 223 224 225 225 226 228 229 229 229 230 229 229 229 229 229 228 228 227 226 226 225 224 225 225 226 226 227 228 229 229 230 230 230 231 231 232 232 233 233 234 234 235 235 235 236 236 237 238 238 239 239 238 237 235 233 232 232 232 230 228 227 226 224 223 222 221 220 219 218 218 219 219 220 223 226 227 228 229 229 228 227 227 225 223
221 221 222 223 224 224 225 227 228 228 228 229 230 230 229 229 229 229 228 227 227 227 226 225 225 225 226 226 226 227 228 229 230 230 230 231 231 231 232 232 233 234 234 235 235 235 236 236 237 238 238 239 239 239 239 237 235 233 232 232 231 230 228 226 224 223 223 223 223 220 218 218 218 217 217 219 223 228 232 235 234 233 231 230 228 227
222 222 223 223 224 224 225 226 227 227 226 227 228 229 230 229 229 229 229 227 227 228 227 226 225 225 226 226 226 227 228 229 230 229 229 230 231 231 231 232 232 233 233 234 234 235 236 236 237 237 238 238 239 239 239 238 237 235 233 232 231 231 229 227 225 223 223 224 224 223 221 220 219 216 214 216 220 226 232 236 237 237 236 234 233 232
225 224 224 224 224 225 225 225 226 226 226 226 227 228 229 229 229 229 229 228 227 228 228 227 226 226 226 226 226 227 228 229 229 229 228 229 231 231 231 232 232 233 233 233 234 234 235 236 236 236 237 237 238 239 239 238 238 237 235 233 232 231 230 229 227 225 223 223 224 224 223 222 221 218 214 214 219 223 227 231 235 238 239 237 236 235
227 226 226 226 225 226 226 226 227 226 226 226 227 227 228 229 229 229 229 228 228 228 229 228 227 226 226 226 226 227 227 228 229 229 228 229 230 231 231 232 232 233 233 233 234 234 234 235 235 236 236 236 237 238 238 238 238 237 236 234 232 231 230 230 229 227 225 223 223 224 224 224 224 221 217 216 219 222 226 229 230 234 237 237 235 234
227 227 227 227 227 227 227 227 227 227 226 226 227 228 228 229 229 229 229 228 228 228 228 229 228 227 227 227 227 227 227 228 229 229 228 229 230 231 231 232 232 232 233 233 233 234 234 234 234 235 236 236 236 236 237 238 237 237 236 235 234 232 230 230 230 229 227 225 223 224 225 225 225 225 223 222 222 223 226 229 230 232 236 236 234 233
229 228 228 228 228 228 229 229 229 228 226 226 228 228 228 228 229 229 229 229 228 228 228 229 228 228 227 227 228 228 227 227 228 228 228 229 230 231 231 232 232 232 233 233 233 234 234 234 234 234 235 235 235 236 236 237 237 237 237 236 235 233 231 230 229 229 228 227 225 224 224 225 225 226 226 226 226 224 225 227 229 231 234 236 236 234
231 230 229 229 229 229 230 230 230 229 228 227 228 229 229 229 229 229 229 229 229 229 228 229 229 228 228 228 228 228 228 228 228 228 228 228 229 230 231 232 232 232 233 233 234 234 234 234 234 234 235 235 235 235 235 236 236 236 236 236 235 234 233 231 229 229 229 228 227 225 225 225 226 226 226 227 227 226 225 226 228 230 232 234 236 236
233 232 231 231 230 230 230 230 230 230 229 228 229 229 230 230 230 230 230 229 229 229 229 229 229 229 229 228 228 228 228 228 228 228 228 228 229 229 230 231 232 232 232 233 233 234 234 235 235 235 235 235 235 235 235 235 235 235 236 236 235 234 233 232 231 229 228 228 228 227 226 225 225 226 226 227 227 227 226 226 227 229 231 233 235 236
235 234 233 232 231 231 231 231 231 231 230 229 229 230 230 230 230 230 230 230 230 230 230 230 230 230 229 229 229 228 229 229 229 229 228 228 229 229 230 230 231 232 232 233 233 234 234 235 235 235 236 236 236 235 235 235 235 235 235 235 235 234 233 233 232 230 229 228 228 228 227 226 226 226 226 226 227 227 227 226 226 228 230 233 234 235
238 236 235 233 232 232 232 232 231 231 231 231 230 230 231 231 231 231 231 231 231 231 231 231 231 231 230 230 230 229 229 229 229 229 229 229 229 229 230 230 231 231 232 233 233 233 234 234 235 236 236 236 236 236 236 235 235 235 235 235 235 234 233 232 232 231 230 229 228 227 227 227 226 226 226 226 226 227 227 227 226 226 228 230 232 233
244 240 238 237 235 234 233 233 232 232 232 232 232 231 232 232 232 232 232 232 231 232 232 232 232 232 232 232 231 231 230 230 230 230 230 230 230 230 230 230 230 231 232 233 233 233 233 233 234 235 236 236 237 237 236 236 235 235 235 235 235 234 233 232 231 231 230 229 228 227 227 227 227 226 226 226 226 226 227 227 227 226 226 228 230 231
247 245 242 239 238 236 234 232 232 233 232 232 232 232 232 232 233 233 233 233 233 233 233 233 233 233 233 232 232 232 232 231 231 231 231 231 231 231 231 231 231 231 232 232 233 233 233 233 234 234 235 236 236 237 237 237 236 236 235 235 235 235 234 233 232 231 231 230 229 228 227 227 227 227 226 226 226 226 226 227 227 226 226 226 228 229
Height
10892 10898 10904 10910 10913 10917 10924 10927 10930 10939 10948 10953 10956 10959 10964 10969 10974 10978 10982 10986 10989 10992 10993 10993 10996 11001 11007 11010 11013 11015 11019 11022 11023 11021 11018 11019 11022 11023 11024 11026 11028 11029 11031 11032 11032 11033 11033 11033 11033 11033 11032 11031 11031 11030 11029 11028 11028 11028 11027 11027 11026 11026 11026 11026 11025 11025 11025 11024 11024 11024 11024 11023 11023 11023 11023 11022 11022 11022 11021 11021 11020 11020 11021 11020 11020 11019
10886 10892 10898 10902 10904 10909 10915 10918 10927 10939 10946 10948 10949 10954 10958 10962 10967 10972 10977 10981 10984 10987 10989 10989 10990 10995 11002 11005 11008 11012 11016 11019 11020 11020 11019 11018 11019 11021 11022 11024 11026 11028 11029 11030 11031 11032 11032 11032 11032 11032 11032 11031 11031 11030 11030 11029 11028 11028 11028 11027 11027 11026 11026 11026 11026 11026 11026 11026 11025 11025 11025 11024 11024 11024 11024 11024 11024 11024 11023 11023 11022 11022 11022 11022 11021 11021
10880 10886 10890 10892 10897 10904 10909 10916 10928 10936 10937 10939 10942 10947 10949 10955 10964 10969 10973 10977 10980 10982 10984 10985 10986 10991 10996 10999 11003 11008 11011 11012 11014 11017 11019 11019 11019 11019 11021 11023 11025 11026 11027 11028 11029 11030 11030 11031 11031 11031 11031 11031 11030 11030 11030 11029 11028 11028 11028 11028 11028 11027 11027 11026 11027 11027 11027 11027 11026 11026 11026 11025 11025 11025 11025 11025 11025 11025 11025 11024 11024 11024 11023 11023 11023 11023
10873 10876 10878 10883 10891 10898 10903 10914 10924 10924 10927 10932 10936 10939 10943 10953 10961 10963 10966 10971 10974 10977 10980 10981 10983 10987 10991 10994 10999 11004 11007 11008 11010 11014 11017 11018 11019 11020 11020 11021 11023 11024 11025 11026 11027 11028 11029 11029 11029 11029 11029 11030 11030 11029 11029 11029 11028 11028 11028 11028 11028 11027 11027 11027 11027 11027 11027 11027 11027 11027 11027 11026 11026 11026 11026 11027 11027 11027 11027 11026 11026 11026 11025 11025 11025 11024
10863 10865 10868 10875 10884 10890 10898 10909 10912 10912 10920 10927 10931 10935 10941 10951 10954 10956 10964 10969 10970 10973 10975 10977 10979 10982 10987 10991 10995 11000 11003 11005 11007 11010 11013 11015 11017 11019 11019 11021 11022 11022 11022 11024 11025 11026 11027 11027 11027 11027 11027 11028 11028 11028 11028 11029 11028 11028 11028 11028 11028 11028 11028 11027 11027 11027 11028 11028 11028 11028 11028 11028 11028 11028 11028 11028 11028 11028 11029 11028 11028 11027 11027 11027 11026 11026
10854 10857 10863 10873 10882 10886 10892 10899 10901 10906 10915 10921 10927 10931 10936 10944 10946 10954 10963 10963 10965 10968 10969 10973 10975 10977 10983 10987 10990 10994 10998 11001 11004 11007 11010 11012 11014 11017 11018 11020 11020 11020 11021 11022 11023 11023 11024 11024 11025 11025 11025 11026 11027 11027 11027 11028 11028 11028 11028 11028 11028 11028 11028 11028 11027 11028 11028 11028 11028 11028 11029 11029 11029 11029 11029 11029 11029 11030 11030 11030 11030 11029 11029 11028 11028 11028
10846 10852 10861 10871 10877 10878 10885 10892 10895 10901 10908 10914 10921 10923 10928 10937 10943 10953 10956 10953 10957 10959 10962 10968 10968 10972 10979 10981 10985 10990 10994 10998 11001 11005 11008 11010 11013 11016 11017 11017 11017 11018 11019 11020 11020 11020 11021 11021 11022 11023 11024 11024 11025 11026 11026 11027 11027 11027 11027 11027 11028 11028 11028 11028 11028 11028 11028 11028 11029 11029 11030 11030 11030 11030 11030 11031 11031 11031 11031 11031 11031 11031 11031 11030 11030 11029
10841 10849 10858 10863 10865 10869 10879 10886 10889 10895 10900 10906 10911 10914 10923 10933 10939 10945 10944 10945 10951 10953 10959 10964 10964 10970 10974 10978 10983 10987 10991 10994 10998 11004 11007 11007 11010 11014 11015 11014 11014 11015 11016 11017 11018 11018 11018 11019 11020 11021 11022 11023 11024 11025 11025 11025 11026 11026 11027 11027 11027 11028 11029 11028 11028 11028 11028 11029 11029 11030 11031 11031 11031 11031 11031 11032 11032 11032 11032 11032 11032 11032 11032 11032 11031 11031
10835 10845 10849 10851 10855 10863 10874 10878 10882 10888 10891 10898 10905 10911 10921 10928 10931 10932 10933 10939 10946 10950 10956 10960 10962 10966 10969 10974 10980 10983 10986 10989 10994 11001 11005 11005 11007 11010 11012 11012 11013 11013 11013 11014 11015 11016 11017 11017 11019 11019 11021 11022 11023 11023 11024 11024 11024 11025 11026 11026 11027 11028 11028 11028 11028 11028 11028 11029 11030 11030 11031 11031 11032 11032 11032 11032 11032 11033 11033 11033 11033 11033 11033 11033 11033 11032
10828 10835 10834 10839 10847 10857 10865 10870 10876 10880 10883 10892 10901 10907 10916 10920 10922 10924 10928 10936 10942 10946 10951 10954 10957 10961 10964 10969 10975 10979 10980 10982 10989 10996 11000 11003 11005 11006 11007 11008 11011 11011 11011 11012 11013 11014 11016 11017 11018 11019 11020 11021 11022 11022 11023 11023 11023 11024 11024 11025 11026 11027 11028 11028 11028 11028 11028 11029 11030 11030 11031 11032 11032 11032 11033 11033 11033 11033 11033 11033 11034 11034 11034 11034 11034 11034
10821 10822 10824 10834 10843 10851 10858 10862 10869 10872 10875 10889 10897 10900 10907 10913 10914 10916 10920 10927 10935 10941 10944 10947 10951 10955 10959 10964 10968 10972 10974 10976 10984 10990 10994 10999 11002 11004 11005 11006 11008 11008 11007 11008 11010 11012 11012 11013 11016 11018 11019 11020 11021 11021 11021 11022 11022 11023 11023 11024 11024 11025 11026 11027 11028 11028 11028 11029 11029 11030 11031 11031 11032 11033 11033 11033 11033 11034 11034 11034 11034 11035 11035 11035 11035 11035
10814 10816 10823 10832 10839 10847 10853 10858 10864 10864 10871 10887 10891 10890 10898 10903 10904 10908 10913 10920 10931 10936 10935 10940 10946 10948 10952 10957 10961 10966 10969 10973 10979 10984 10988 10993 10996 11000 11002 11004 11007 11007 11006 11008 11010 11011 11009 11010 11014 11017 11019 11019 11019 11019 11019 11020 11021 11021 11022 11022 11023 11023 11024 11026 11027 11027 11028 11029 11029 11030 11031 11031 11032 11033 11033 11034 11034 11034 11034 11035 11035 11035 11036 11036 11036 11036
10806 10809 10816 10824 10833 10841 10846 10853 10858 10858 10870 10884 10881 10880 10889 10893 10897 10904 10909 10916 10928 10929 10926 10933 10938 10938 10946 10953 10956 10960 10963 10968 10975 10978 10982 10986 10990 10994 10997 11001 11003 11005 11008 11010 11012 11012 11010 11011 11014 11017 11018 11018 11017 11017 11017 11018 11019 11020 11020 11020 11021 11021 11022 11023 11025 11026 11027 11028 11029 11030 11031 11031 11032 11033 11033 11034 11034 11035 11035 11035 11036 11036 11036 11036 11037 11037
10795 10796 10803 10815 10825 10831 10836 10844 10847 10851 10865 10874 10870 10873 10881 10885 10893 10901 10904 10910 10921 10920 10917 10923 10928 10933 10943 10948 10949 10953 10957 10963 10969 10972 10976 10980 10984 10988 10992 10996 10999 11002 11005 11007 11009 11010 11011 11013 11014 11015 11016 11016 11016 11016 11015 11016 11017 11018 11019 11019 11019 11020 11020 11021 11023 11024 11025 11026 11028 11029 11030 11031 11032 11033 11033 11034 11034 11035 11036 11036 11036 11037 11037 11037 11037 11037
10783 10784 10796 10808 10814 10820 10827 10833 10836 10844 10857 10862 10861 10867 10873 10879 10887 10892 10895 10902 10911 10911 10908 10913 10923 10931 10937 10940 10943 10947 10951 10957 10962 10965 10970 10974 10979 10983 10987 10990 10995 10999 11001 11003 11005 11005 11008 11010 11012 11013 11014 11014 11014 11013 11013 11014 11014 11016 11016 11017 11018 11018 11019 11020 11021 11022 11023 11025 11026 11028 11030 11031 11032 11033 11034 11034 11034 11035 11036 11036 11037 11037 11037 11037 11037 11038
10773 10776 10789 10798 10804 10813 10818 10821 10829 10841 10851 10853 10855 10861 10867 10873 10879 10883 10887 10894 10901 10901 10898 10906 10920 10927 10930 10933 10936 10939 10943 10950 10955 10959 10964 10969 10973 10977 10980 10983 10988 10994 10997 10998 11000 11002 11004 11007 11009 11010 11011 11011 11011 11010 11011 11012 11013 11014 11014 11015 11016 11016 11018 11018 11019 11021 11021 11023 11024 11026 11029 11030 11032 11033 11034 11034 11034 11035 11036 11037 11037 11038 11038 11038 11038 11038
10763 10768 10783 10792 10798 10805 10807 10814 10826 10834 10839 10843 10849 10857 10863 10867 10870 10873 10879 10885 10891 10892 10892 10903 10916 10920 10921 10925 10927 10930 10936 10943 10948 10952 10958 10963 10967 10970 10974 10977 10981 10987 10991 10993 10997 10999 11001 11005 11006 11006 11005 11006 11008 11008 11009 11010 11011 11012 11013 11013 11014 11016 11016 11017 11017 11018 11019 11021 11022 11024 11027 11029 11031 11032 11033 11034 11034 11035 11036 11036 11038 11038 11039 11039 11038 11038
10750 10759 10777 10783 10788 10796 10801 10810 10819 10821 10826 10834 10842 10849 10852 10855 10860 10866 10873 10879 10884 10887 10891 10902 10911 10911 10911 10915 10918 10922 10929 10936 10941 10946 10950 10955 10960 10963 10968 10971 10974 10979 10984 10988 10993 10997 11001 11004 11006 11004 11001 11001 11005 11007 11008 11009 11009 11011 11012 11012 11013 11014 11014 11015 11016 11015 11017 11019 11020 11021 11024 11026 11029 11030 11032 11033 11033 11034 11035 11036 11037 11038 11039 11039 11039 11039
10741 10757 10772 10775 10782 10791 10795 10801 10808 10811 10819 10828 10834 10838 10842 10847 10855 10864 10869 10875 10882 10885 10889 10899 10904 10901 10901 10906 10910 10915 10923 10930 10934 10937 10943 10948 10953 10957 10961 10964 10968 10972 10976 10982 10989 10994 10998 11002 11003 11003 11000 11000 11004 11007 11007 11006 11006 11007 11009 11010 11011 11012 11013 11012 11012 11013 11015 11017 11017 11018 11020 11022 11025 11027 11029 11031 11032 11033 11034 11035 11036 11037 11038 11039 11039 11039
10742 10758 10768 10769 10777 10785 10786 10793 10800 10803 10811 10819 10825 10832 10838 10844 10852 10859 10862 10868 10876 10878 10883 10893 10893 10888 10891 10899 10904 10911 10918 10923 10926 10930 10936 10941 10946 10950 10955 10958 10962 10965 10969 10976 10982 10987 10991 10994 10996 10997 10997 10998 11001 11003 11002 11002 11003 11004 11006 11007 11009 11012 11012 11010 11010 11012 11014 11016 11016 11016 11016 11018 11020 11023 11025 11027 11029 11031 11032 11034 11035 11036 11037 11038 11038 11039
10739 10751 10756 10759 10771 10776 10776 10781 10787 10792 10801 10811 10818 10825 10831 10837 10846 10852 10854 10858 10864 10867 10873 10881 10879 10878 10886 10894 10900 10908 10913 10915 10918 10924 10929 10934 10939 10944 10948 10952 10955 10958 10963 10969 10975 10979 10983 10986 10989 10990 10992 10995 10998 10999 10999 10999 10999 10999 11003 11006 11009 11013 11014 11012 11011 11013 11013 11014 11015 11016 11016 11016 11017 11019 11020 11023 11025 11027 11029 11031 11033 11034 11035 11036 11037 11038
10728 10739 10744 10750 10758 10757 10759 10771 10782 10789 10798 10808 10816 10820 10824 10831 10838 10843 10846 10851 10858 10862 10865 10867 10867 10872 10880 10887 10894 10901 10903 10905 10911 10917 10922 10927 10933 10937 10942 10946 10949 10952 10956 10962 10968 10972 10975 10979 10982 10985 10987 10990 10994 10996 10997 10998 10997 10996 11001 11007 11010 11013 11014 11012 11010 11011 11011 11012 11014 11015 11016 11016 11017 11018 11019 11020 11022 11024 11026 11028 11030 11032 11033 11035 11036 11037
10724 10731 10736 10740 10739 10741 10756 10772 10778 10782 10791 10800 10806 10809 10815 10824 10830 10835 10838 10842 10848 10854 10856 10859 10863 10869 10875 10881 10889 10893 10894 10898 10904 10910 10915 10920 10926 10930 10935 10939 10943 10946 10950 10956 10961 10965 10968 10972 10975 10980 10983 10985 10989 10992 10995 10996 10996 10996 11001 11007 11009 11010 11010 11009 11008 11007 11008 11010 11011 11012 11013 11014 11016 11018 11019 11020 11021 11022 11024 11026 11028 11029 11031 11033 11034 11035
10718 10721 10725 10729 10731 10743 10761 10765 10765 10772 10781 10787 10790 10793 10803 10813 10819 10825 10830 10834 10840 10846 10850 10853 10859 10866 10871 10877 10883 10885 10886 10891 10896 10903 10908 10913 10919 10923 10928 10933 10936 10939 10943 10949 10954 10958 10962 10965 10969 10974 10978 10981 10986 10989 10990 10992 10993 10995 10998 11001 11003 11005 11004 11003 11004 11005 11005 11007 11008 11008 11009 11011 11013 11015 11017 11018 11020 11021 11022 11024 11026 11027 11029 11030 11032 11033
10707 10710 10715 10722 10730 10744 10753 10752 10756 10767 10771 10774 10779 10787 10799 10808 10813 10820 10826 10831 10837 10843 10845 10845 10849 10857 10862 10867 10874 10876 10877 10883 10890 10896 10901 10906 10911 10916 10920 10926 10929 10933 10937 10942 10948 10952 10955 10959 10963 10967 10972 10976 10981 10984 10986 10987 10989 10993 10995 10993 10996 11001 11000 10998 10999 11001 11002 11003 11005 11005 11006 11008 11011 11013 11014 11016 11017 11019 11020 11022 11024 11025 11027 11028 11030 11031
10697 10701 10706 10715 10725 10733 10738 10741 10748 10756 10759 10765 10775 10787 10797 10803 10808 10813 10818 10822 10825 10830 10833 10833 10840 10851 10855 10858 10865 10868 10870 10877 10883 10889 10894 10899 10904 10909 10913 10918 10922 10927 10931 10936 10941 10945 10949 10953 10957 10961 10966 10970 10975 10978 10981 10983 10986 10990 10992 10991 10991 10993 10994 10994 10995 10997 10998 10999 11001 11002 11004 11007 11009 11011 11013 11014 11015 11017 11018 11019 11021 11023 11024 11025 11027 11028
10689 10693 10699 10709 10716 10720 10726 10731 10737 10744 10750 10760 10772 10781 10785 10791 10798 10802 10807 10812 10815 10819 10821 10823 10835 10848 10850 10853 10860 10863 10865 10871 10876 10881 10887 10892 10897 10902 10907 10911 10915 10920 10924 10929 10934 10938 10942 10947 10951 10955 10959 10963 10968 10971 10974 10978 10981 10984 10986 10987 10988 10986 10986 10989 10991 10992 10994 10995 10997 10999 11002 11005 11007 11010 11012 11013 11014 11015 11015 11017 11018 11020 11021 11023 11024 11025
10681 10686 10692 10700 10707 10712 10718 10725 10731 10737 10745 10755 10765 10769 10774 10783 10788 10789 10797 10804 10808 10812 10816 10821 10831 10839 10841 10845 10851 10855 10859 10864 10869 10874 10880 10885 10890 10895 10900 10904 10908 10913 10918 10923 10927 10932 10936 10940 10944 10948 10952 10956 10961 10964 10968 10971 10975 10978 10980 10981 10983 10983 10983 10984 10986 10988 10990 10991 10994 10997 11000 11003 11005 11008 11010 11011 11013 11014 11014 11015 11016 11018 11019 11020 11021 11022
10673 10678 10684 10692 10700 10705 10711 10719 10725 10730 10739 10749 10755 10758 10765 10772 10774 10778 10789 10798 10803 10806 10810 10816 10823 10828 10832 10836 10840 10846 10851 10855 10860 10866 10872 10877 10883 10887 10893 10897 10901 10906 10911 10916 10921 10926 10929 10933 10937 10942 10946 10950 10954 10958 10961 10964 10968 10971 10973 10975 10978 10979 10980 10981 10983 10984 10986 10988 10991 10994 10997 10999 11002 11005 11008 11009 11010 11012 11013 11014 11015 11016 11017 11018 11019 11020
10665 10671 10677 10684 10691 10697 10704 10711 10717 10723 10731 10739 10745 10750 10756 10760 10763 10772 10784 10791 10794 10796 10799 10805 10811 10816 10822 10828 10833 10839 10843 10846 10852 10858 10864 10870 10875 10880 10886 10890 10894 10899 10903 10908 10914 10918 10923 10927 10931 10936 10940 10944 10948 10951 10955 10958 10961 10964 10966 10969 10972 10974 10976 10978 10980 10982 10984 10986 10988 10991 10994 10996 10999 11003 11006 11008 11008 11010 11011 11013 11014 11016 11016 11017 11017 11018
10657 10664 10670 10675 10681 10688 10695 10701 10708 10715 10720 10727 10734 10740 10745 10750 10757 10765 10772 10779 10783 10784 10788 10794 10799 10805 10815 10823 10828 10831 10834 10838 10843 10848 10855 10861 10867 10873 10878 10882 10887 10891 10896 10901 10906 10911 10916 10921 10925 10929 10933 10937 10941 10945 10948 10952 10955 10958 10960 10963 10966 10968 10971 10973 10976 10979 10981 10983 10985 10988 10991 10994 10997 11001 11003 11004 11005 11007 11009 11011 11012 11013 11014 11015 11016 11016
10649 10655 10660 10665 10671 10678 10684 10691 10699 10704 10708 10715 10723 10728 10733 10740 10745 10752 10762 10771 10774 10774 10779 10785 10790 10798 10809 10816 10819 10820 10823 10830 10835 10840 10847 10852 10858 10864 10869 10874 10879 10883 10888 10893 10898 10902 10908 10913 10918 10922 10926 10930 10934 10938 10942 10946 10949 10952 10955 10957 10960 10963 10965 10968 10971 10974 10976 10979 10983 10985 10988 10990 10994 10997 10998 11000 11001 11003 11005 11008 11010 11011 11012 11013 11014 11014
10641 10646 10650 10655 10661 10667 10675 10682 10688 10692 10696 10702 10709 10715 10722 10728 10735 10746 10755 10760 10763 10764 10768 10775 10781 10790 10800 10806 10807 10809 10814 10821 10828 10833 10838 10843 10849 10855 10860 10866 10871 10875 10880 10885 10889 10894 10899 10904 10909 10914 10918 10923 10927 10931 10935 10939 10942 10945 10948 10951 10954 10957 10960 10963 10967 10969 10972 10975 10979 10982 10985 10988 10992 10993 10994 10996 10997 10998 10998 10999 11002 11007 11010 11011 11012 11012
10632 10635 10640 10647 10651 10658 10667 10672 10676 10681 10684 10688 10697 10707 10714 10720 10728 10737 10742 10747 10752 10755 10758 10764 10772 10781 10790 10793 10792 10798 10807 10815 10820 10824 10827 10832 10839 10844 10850 10856 10861 10866 10871 10876 10880 10885 10890 10895 10900 10905 10910 10915 10919 10923 10927 10931 10935 10939 10942 10945 10948 10951 10955 10959 10961 10964 10967 10971 10975 10978 10981 10985 10988 10989 10991 10995 10996 10995 10993 10991 10992 10996 11001 11006 11009 11009
10621 10625 10632 10638 10640 10649 10658 10661 10664 10670 10673 10680 10692 10701 10705 10710 10716 10723 10729 10736 10742 10744 10747 10754 10761 10771 10778 10778 10781 10792 10802 10806 10809 10812 10816 10822 10828 10834 10840 10846 10851 10856 10861 10866 10871 10876 10881 10886 10891 10896 10901 10906 10911 10915 10919 10923 10927 10931 10935 10939 10941 10945 10949 10953 10956 10959 10963 10968 10972 10975 10978 10981 10983 10984 10988 10992 10991 10990 10991 10990 10989 10988 10989 10994 10999 11002
10612 10616 10623 10628 10630 10640 10649 10649 10651 10658 10665 10675 10686 10690 10692 10698 10705 10711 10717 10722 10726 10731 10737 10743 10751 10760 10766 10768 10775 10786 10791 10793 10796 10800 10806 10811 10817 10824 10830 10835 10841 10847 10851 10856 10862 10867 10872 10877 10882 10887 10892 10897 10902 10907 10911 10915 10919 10924 10928 10932 10935 10939 10943 10947 10951 10955 10959 10964 10968 10971 10974 10976 10978 10980 10983 10985 10984 10984 10986 10987 10987 10986 10982 10982 10985 10990
10604 10608 10613 10617 10622 10631 10637 10636 10639 10648 10656 10665 10673 10677 10680 10687 10692 10697 10703 10709 10716 10722 10729 10735 10743 10750 10755 10760 10768 10775 10778 10781 10784 10790 10796 10802 10808 10815 10820 10826 10832 10837 10842 10847 10852 10857 10863 10868 10872 10877 10882 10887 10893 10898 10903 10907 10911 10916 10920 10924 10929 10933 10937 10941 10946 10950 10955 10959 10963 10965 10968 10971 10975 10978 10980 10979 10978 10980 10982 10983 10984 10982 10980 10977 10976 10978
10596 10599 10604 10608 10613 10620 10623 10623 10629 10639 10646 10653 10661 10665 10668 10674 10679 10684 10690 10697 10703 10709 10716 10725 10731 10736 10742 10750 10757 10761 10766 10769 10772 10778 10787 10794 10800 10807 10811 10817 10823 10828 10833 10838 10843 10849 10854 10858 10863 10868 10873 10879 10884 10889 10894 10899 10904 10908 10912 10917 10922 10926 10931 10935 10940 10944 10948 10951 10953 10955 10958 10963 10968 10972 10974 10974 10975 10977 10978 10978 10977 10976 10976 10976 10976 10976
10588 10591 10595 10599 10604 10609 10611 10613 10620 10628 10635 10642 10648 10653 10656 10661 10666 10671 10678 10684 10690 10697 10706 10714 10720 10723 10730 10738 10745 10749 10754 10755 10758 10769 10782 10789 10793 10798 10802 10807 10812 10817 10823 10828 10834 10840 10844 10848 10854 10859 10864 10870 10875 10880 10885 10890 10895 10900 10904 10909 10914 10919 10923 10928 10933 10937 10941 10942 10943 10946 10951 10955 10959 10963 10966 10968 10970 10972 10973 10972 10971 10971 10973 10974 10975 10977
10580 10583 10586 10590 10594 10598 10601 10604 10609 10617 10625 10631 10635 10639 10643 10648 10653 10658 10663 10670 10680 10687 10694 10702 10709 10713 10719 10728 10734 10737 10738 10739 10747 10765 10779 10779 10779 10786 10791 10795 10801 10806 10812 10818 10824 10829 10833 10839 10845 10850 10855 10861 10865 10870 10876 10881 10886 10891 10896 10901 10905 10910 10915 10920 10925 10929 10933 10935 10937 10941 10945 10949 10952 10955 10959 10961 10963 10965 10966 10966 10966 10967 10969 10970 10972 10975
10573 10576 10579 10582 10585 10589 10592 10595 10599 10605 10612 10619 10623 10627 10631 10635 10640 10643 10648 10660 10671 10676 10680 10688 10697 10703 10709 10717 10720 10721 10724 10730 10742 10758 10765 10762 10765 10773 10778 10782 10788 10794 10800 10806 10813 10817 10822 10829 10835 10840 10845 10850 10855 10860 10866 10871 10876 10882 10887 10892 10897 10901 10906 10912 10917 10922 10925 10928 10931 10935 10938 10941 10944 10947 10950 10952 10954 10956 10958 10959 10960 10962 10965 10967 10969 10972
10566 10569 10571 10574 10577 10579 10582 10585 10587 10592 10601 10608 10612 10615 10618 10621 10626 10632 10640 10652 10661 10664 10667 10674 10684 10691 10697 10702 10705 10708 10715 10723 10730 10739 10746 10749 10753 10759 10763 10770 10777 10782 10788 10795 10801 10806 10812 10819 10824 10829 10834 10840 10844 10850 10856 10861 10866 10871 10877 10882 10887 10893 10898 10902 10908 10913 10917 10920 10924 10927 10931 10934 10936 10940 10943 10945 10946 10948 10949 10951 10953 10956 10959 10960 10963 10966
10559 10561 10564 10566 10568 10570 10573 10575 10577 10584 10594 10600 10601 10604 10607 10611 10617 10625 10632 10640 10647 10651 10654 10659 10669 10678 10683 10686 10691 10698 10705 10710 10715 10724 10734 10739 10740 10744 10751 10759 10765 10770 10776 10783 10788 10795 10801 10807 10812 10817 10823 10828 10834 10839 10845 10850 10856 10861 10866 10872 10877 10883 10888 10893 10898 10903 10908 10912 10916 10919 10922 10926 10929 10933 10936 10939 10941 10942 10942 10944 10947 10949 10950 10951 10955 10960
10550 10552 10555 10557 10560 10562 10564 10565 10570 10578 10586 10589 10589 10592 10598 10603 10608 10614 10619 10625 10632 10638 10640 10645 10655 10664 10668 10673 10679 10685 10692 10697 10702 10712 10722 10727 10728 10732 10739 10745 10752 10757 10763 10769 10776 10782 10788 10794 10799 10805 10810 10816 10822 10828 10833 10839 10845 10850 10856 10861 10867 10873 10878 10884 10889 10894 10899 10903 10907 10911 10914 10917 10921 10924 10928 10931 10934 10936 10938 10940 10943 10944 10944 10946 10949 10953
10541 10543 10545 10547 10551 10554 10555 10558 10563 10569 10575 10577 10578 10582 10588 10593 10596 10600 10607 10613 10619 10624 10628 10633 10641 10649 10654 10660 10666 10671 10678 10684 10689 10698 10707 10713 10716 10720 10725 10731 10738 10744 10750 10756 10762 10769 10774 10780 10786 10791 10797 10803 10810 10816 10822 10828 10834 10840 10845 10850 10856 10862 10867 10873 10878 10884 10889 10893 10898 10902 10906 10909 10912 10916 10919 10923 10926 10930 10932 10935 10938 10939 10940 10942 10945 10948
10532 10535 10537 10539 10542 10545 10546 10549 10554 10559 10564 10568 10569 10572 10577 10581 10584 10589 10595 10601 10605 10610 10616 10621 10627 10633 10640 10647 10652 10657 10663 10670 10675 10683 10692 10699 10703 10707 10712 10718 10724 10731 10737 10743 10748 10755 10760 10766 10772 10778 10784 10790 10797 10804 10810 10816 10822 10828 10833 10838 10844 10850 10856 10862 10868 10873 10878 10883 10888 10893 10897 10900 10904 10907 10911 10914 10918 10922 10925 10929 10932 10934 10935 10937 10940 10943
10524 10526 10529 10531 10534 10536 10537 10539 10544 10549 10554 10558 10560 10563 10566 10570 10573 10578 10583 10589 10593 10598 10602 10608 10613 10619 10625 10631 10638 10643 10649 10655 10661 10668 10676 10685 10690 10694 10699 10705 10711 10717 10724 10729 10734 10741 10747 10753 10759 10765 10770 10777 10784 10791 10798 10804 10810 10815 10820 10826 10832 10839 10844 10850 10856 10862 10867 10872 10877 10882 10887 10891 10894 10898 10902 10905 10909 10913 10917 10921 10924 10927 10929 10931 10934 10938
10517 10518 10519 10522 10524 10526 10528 10531 10534 10539 10544 10548 10550 10552 10555 10558 10563 10567 10572 10577 10582 10586 10590 10595 10600 10605 10611 10617 10623 10629 10635 10641 10647 10653 10661 10670 10676 10681 10686 10692 10697 10703 10709 10715 10721 10728 10734 10739 10745 10751 10757 10763 10770 10778 10785 10791 10797 10802 10807 10813 10819 10826 10832 10838 10844 10850 10855 10860 10866 10871 10875 10880 10884 10888 10892 10896 10900 10904 10908 10912 10916 10919 10922 10924 10927 10931
10508 10509 10510 10512 10514 10516 10518 10522 10526 10530 10534 10537 10539 10542 10545 10548 10552 10556 10560 10565 10569 10573 10577 10582 10587 10592 10598 10603 10609 10616 10622 10628 10633 10639 10646 10654 10661 10667 10672 10678 10683 10689 10694 10701 10708 10714 10720 10726 10731 10737 10743 10750 10756 10763 10771 10778 10783 10788 10794 10799 10806 10812 10820 10826 10831 10837 10843 10848 10854 10859 10864 10869 10874 10878 10882 10887 10891 10895 10899 10903 10906 10910 10913 10916 10919 10922
10499 10501 10503 10504 10506 10507 10510 10515 10518 10521 10523 10526 10528 10532 10536 10539 10542 10545 10548 10552 10557 10561 10565 10569 10574 10580 10585 10590 10596 10602 10608 10614 10620 10625 10631 10639 10647 10653 10658 10664 10670 10675 10681 10687 10693 10700 10706 10711 10717 10723 10729 10735 10741 10748 10755 10762 10769 10774 10780 10786 10793 10799 10807 10814 10819 10825 10830 10835 10841 10847 10852 10857 10862 10867 10872 10877 10881 10885 10889 10893 10897 10901 10904 10907 10910 10913
10492 10493 10495 10496 10497 10499 10501 10505 10508 10509 10512 10516 10519 10522 10526 10529 10532 10535 10537 10541 10546 10551 10554 10557 10562 10567 10572 10577 10582 10588 10593 10600 10606 10612 10618 10625 10632 10638 10644 10650 10655 10661 10667 10672 10678 10684 10690 10696 10702 10709 10714 10720 10726 10732 10739 10746 10753 10759 10766 10772 10779 10786 10794 10801 10807 10813 10818 10823 10828 10834 10840 10845 10851 10856 10861 10866 10870 10875 10880 10883 10887 10891 10895 10898 10901 10904